• Join FlightAware (Why Join?)
  • Login
  • US Flag 
09:40PM EDT


 

Airport Tracker/Info


-or-


 

Live Flight TrackerFlight Track Log ✈ N225SB ✈ 14-Nov-2013 ✈ KFTY - KNEW

Flight Track Log - Related Links

Times and Time Zones

All times are in EST time to prevent confusion due to time zone crossing. See the N225SB flight status page for this flight to view local times or setup timezone preferences in your user account.

Time Position Orientation Groundspeed Altitude Reporting Facility
EST Latitude Longitude Course Direction KTS MPH feet Rate Location/Type
04:11PM 33.8333 -84.4833 292° West 248 285 3,000  Level Atlanta TRACON
04:12PM 33.8500 -84.5333 292° West 237 273 4,600 960 Climbing Atlanta TRACON
04:13PM 33.8500 -84.6333 270° West 264 304 5,000 180 Climbing Atlanta TRACON
04:14PM 33.8500 -84.7167 270° West 270 311 5,000  Level Atlanta TRACON
04:15PM 33.8500 -84.8000 270° West 272 313 5,000  Level Atlanta TRACON
04:16PM 33.8500 -84.8833 270° West 275 316 5,100 660 Climbing Atlanta TRACON
04:16PM 33.8389 -84.9442 258° West 277 319 6,100 2,460 Climbing Atlanta Center
04:17PM 33.8008 -85.0214 239° Southwest 283 326 8,900 2,940 Climbing Atlanta Center
04:18PM 33.7419 -85.0831 221° Southwest 283 326 12,000 2,580 Climbing Atlanta Center
04:19PM 33.6725 -85.1419 215° Southwest 304 350 14,100 2,040 Climbing Atlanta Center
04:20PM 33.6153 -85.2236 230° Southwest 311 358 16,100 1,800 Climbing Atlanta Center
04:21PM 33.5747 -85.3081 240° Southwest 323 372 17,800 1,680 Climbing Atlanta Center
04:22PM 33.5300 -85.4069 242° Southwest 329 379 19,500 1,800 Climbing Atlanta Center
04:23PM 33.4850 -85.4958 239° Southwest 329 379 21,500 2,040 Climbing Atlanta Center
04:24PM 33.4403 -85.5872 240° Southwest 329 379 23,600 1,200 Climbing Atlanta Center
04:25PM 33.3931 -85.6808 239° Southwest 324 373 24,000 180 Climbing Atlanta Center
04:26PM 33.3394 -85.7844 238° Southwest 350 403 24,000 480 Level Atlanta Center
04:27PM 33.2794 -85.8850 235° Southwest 367 422 25,000 1,440 Climbing Atlanta Center
04:28PM 33.2278 -85.9908 240° Southwest 374 430 26,900 2,040 Climbing Atlanta Center
04:29PM 33.1803 -86.0864 239° Southwest 363 418 29,100 1,800 Climbing Atlanta Center
04:30PM 33.1225 -86.1719 231° Southwest 349 402 30,600 1,500 Climbing Atlanta Center
04:31PM 33.0483 -86.2394 217° Southwest 336 387 32,100 1,500 Climbing Atlanta Center
04:32PM 32.9761 -86.3069 218° Southwest 336 387 33,600 1,620 Climbing Atlanta Center
04:33PM 32.8994 -86.3792 218° Southwest 330 380 35,400 1,200 Climbing Atlanta Center
04:34PM 32.8336 -86.4442 220° Southwest 325 374 36,000 300 Climbing Atlanta Center
04:35PM 32.7633 -86.5089 218° Southwest 319 367 36,000  Level Atlanta Center
04:36PM 32.6869 -86.5808 218° Southwest 336 387 36,000  Level Atlanta Center
04:37PM 32.6081 -86.6550 218° Southwest 350 403 36,000  Level Atlanta Center
04:38PM 32.5292 -86.7292 218° Southwest 358 412 36,000  Level Atlanta Center
04:39PM 32.4483 -86.8031 218° Southwest 369 425 36,000  Level Atlanta Center
04:40PM 32.3650 -86.8814 218° Southwest 376 433 36,000  Level Atlanta Center
04:41PM 32.2819 -86.9550 217° Southwest 376 433 36,000  Level Atlanta Center
04:42PM 32.2008 -87.0308 218° Southwest 376 433 36,000  Level Atlanta Center
04:43PM 32.1197 -87.1092 219° Southwest 376 433 36,000  Level Atlanta Center
04:44PM 32.0342 -87.1844 217° Southwest 376 433 36,000  Level Atlanta Center
04:45PM 31.9508 -87.2625 218° Southwest 381 438 36,000  Level Atlanta Center
04:47PM 31.8264 -87.3694 216° Southwest 379 436 36,000  Level Houston Center
04:48PM 31.7456 -87.4442 218° Southwest 373 429 36,000  Level Houston Center
04:49PM 31.6469 -87.5319 217° Southwest 370 426 36,000  Level Houston Center
04:50PM 31.5647 -87.6064 218° Southwest 372 428 36,000  Level Houston Center
04:51PM 31.4839 -87.6806 218° Southwest 371 427 36,000  Level Houston Center
04:52PM 31.4014 -87.7533 217° Southwest 371 427 36,000  Level Houston Center
04:53PM 31.3322 -87.8400 227° Southwest 365 420 36,000  Level Houston Center
04:54PM 31.2678 -87.9283 230° Southwest 360 414 36,000  Level Houston Center
04:55PM 31.1883 -88.0350 229° Southwest 357 411 36,000  Level Houston Center
04:56PM 31.1247 -88.1214 229° Southwest 352 405 36,000  Level Houston Center
04:57PM 31.0619 -88.2075 230° Southwest 350 403 36,000  Level Houston Center
04:58PM 31.0003 -88.2936 230° Southwest 348 400 36,000 -240 Level Houston Center
04:59PM 30.9333 -88.3775 227° Southwest 350 403 35,500 -900 Descending Houston Center
05:00PM 30.8689 -88.4644 230° Southwest 353 406 34,200 -1,560 Descending Houston Center
05:01PM 30.8649 -88.4559 230° Southwest  Level FlightAware Approximate
05:01PM 30.7892 -88.5711 229° Southwest 362 417 32,300  Level Houston Center
05:03PM 30.7286 -88.6494 228° Southwest 366 421 31,100 -1,500 Descending Houston Center
05:04PM 30.6436 -88.7608 228° Southwest 381 438 29,200 -1,860 Descending Houston Center
05:05PM 30.5719 -88.8556 229° Southwest 388 447 27,300 -1,860 Descending Houston Center
05:06PM 30.5056 -88.9450 229° Southwest 394 453 25,400 -1,980 Descending Houston Center
05:07PM 30.4322 -89.0414 229° Southwest 398 458 23,300 -2,280 Descending Houston Center
05:08PM 30.3697 -89.1778 242° Southwest 397 457 20,800 -2,280 Descending Houston Center
05:08PM 30.3411 -89.2539 246° West 394 453 19,500 -2,100 Descending Houston Center
05:09PM 30.3281 -89.2933 249° West 391 450 18,600 -1,800 Descending Houston Center
05:10PM 30.2856 -89.4033 246° West 378 435 16,900 -1,860 Descending Houston Center
05:10PM 30.2783 -89.4231 247° West 373 429 16,600 -2,040 Descending Houston Center
05:11PM 30.2464 -89.5053 246° West 353 406 14,800 -2,160 Descending Houston Center
05:11PM 30.2383 -89.5286 248° West 310 357 14,200 -2,520 Descending Houston Center
05:12PM 30.2122 -89.5922 245° Southwest 306 352 12,200 -2,460 Descending Houston Center
05:12PM 30.2058 -89.6119 249° West 281 323 11,700 -2,280 Descending Houston Center
05:13PM 30.1814 -89.6736 245° Southwest 282 325 9,900 -2,460 Descending Houston Center
05:13PM 30.1769 -89.6853 246° West 267 307 9,500 -2,040 Descending Houston Center
05:14PM 30.1517 -89.7494 246° West 263 303 7,800 -2,400 Descending Houston Center
05:15PM 30.1006 -89.8331 235° Southwest 250 288 4,400 -1,920 Descending Houston Center
05:16PM 30.0625 -89.8806 227° Southwest 208 239 4,000 -480 Descending Houston Center
05:16PM 30.0611 -89.8797 153° Southeast 240 276 4,000 -600 Level Houston Center
05:17PM 30.0228 -89.9236 225° Southwest 213 245 3,400 -660 Descending Houston Center
05:17PM 30.0181 -89.9281 219° Southwest 188 216 3,300 -1,380 Descending Houston Center
05:18PM 30.0006 -89.9672 243° Southwest 154 177 2,100 -1,320 Descending Houston Center
05:18PM 30.0017 -89.9653 57° Northeast 176 203 2,000 -1,200 Descending Houston Center
05:19PM 30.0000 -90.0178 268° West 161 185 900 -1,200 Descending Houston Center
05:19PM 29.9989 -90.0172 157° South 165 190 800 -540 Descending Houston Center
05:20PM 30.0339 -90.0292 344° North 147 169 300 -540 Descending Houston Center
05:22PM 30.0333 -90.0167 North  Level FlightAware Approximate
05:29PM 30.0424 -90.0283 North  Level Estimated